Regional Weather Roundup
Issued by NWS

Home | Current Version | Previous Version | Graphics & Text | Print | Product List | Glossary Off
Versions: 1 2 3 4 5 6 7 8 9 10 11 12 13 14 15 16 17 18 19 20 21 22 23 24 25 26 27 28 29 30 31 32 33 34 35 36 37 38 39 40 41 42 43 44 45 46 47 48 49 50

000
ASUS43 KTOP 260059
RWRKS

WEATHER ROUNDUP FOR KANSAS
NATIONAL WEATHER SERVICE GOODLAND KS
700 PM CST TUE NOV 25 2014

NOTE:  "FAIR" INDICATES FEW OR NO CLOUDS BELOW 12,000 FEET WITH NO
SIGNIFICANT WEATHER AND/OR OBSTRUCTIONS TO VISIBILITY.

KSZ001>006-013>018-027>032-041>047-260200-
NORTHWEST KANSAS

CITY           SKY/WX    TMP DP  RH WIND       PRES   REMARKS
GOODLAND       CLOUDY    45  21  38 N12       29.91R
HAYS           CLOUDY    45  18  33 S10       29.89F
HILL CITY      CLOUDY    45  13  27 SW6       29.88S
RUSSELL        CLOUDY    45  21  38 S14       29.89F
$$

KSZ061>065-074>080-084>089-260200-
SOUTHWEST KANSAS

CITY           SKY/WX    TMP DP  RH WIND       PRES   REMARKS
DODGE CITY     MOCLDY    38  15  39 S8        29.93S
ELKHART          N/A     43  13  29 W3          N/A
GARDEN CITY    CLOUDY    37  15  40 S8        29.91R
GREAT BEND     CLOUDY    45  18  33 S15       29.94F
LIBERAL        CLOUDY    37  14  38 SW7       29.95R
$$

KSZ066>073-081>083-090>101-260200-
SOUTHEAST KANSAS

CITY           SKY/WX    TMP DP  RH WIND       PRES   REMARKS
CHANUTE        MOCLDY    37  23  56 S7        30.09S
COFFEYVILLE    PTCLDY    39  23  52 S7        30.11S
HUTCHINSON     CLOUDY    45  27  49 S10       29.99S
MEDICINE LODGE   N/A     46  24  42 SE8       29.99S
NEWTON         CLOUDY    43  25  49 S10       30.03S
PARSONS        MOCLDY    40  23  50 S5        30.11S
WICHITA INTL   CLOUDY    44  28  53 S13       30.02F
WICHITA JABRA  CLOUDY    43  27  53 S10       30.03S
WICHITA MCCONL CLOUDY    43  26  51 SE13      30.03F
WINFIELD       CLOUDY    42  28  57 SE5       30.06F
$$

KSZ007>012-019>026-033>040-048>060-102>105-260200-
NORTHEAST KANSAS

CITY           SKY/WX    TMP DP  RH WIND       PRES   REMARKS
CONCORDIA      CLOUDY    45  22  40 S14       29.93F
EMPORIA        CLOUDY    40  24  53 S9        30.03F
LAWRENCE       CLOUDY    32  22  66 SE7       30.07S
MANHATTAN      CLOUDY    45  25  45 SW13      30.00S
OLATHE IND     MOCLDY    35  20  54 S9        30.07S
OLATHE EXE     MOCLDY    36  19  50 S8        30.07S
SALINA         CLOUDY    45  27  49 S9        29.97S
TOPEKA BILLARD CLOUDY    41  23  48 SE9       30.04F
TOPEKA FORBES  CLOUDY    40  23  50 SE10      30.03F WCI  33
$$



USA.gov is the U.S. government's official web portal to all federal, state and local government web resources and services.